Estherville, IA

1:28 AM CDT on September 30, 2016 (GMT -0500)
Estherville Municipal

Weather History for KEST - September, 2012

Change the Weather History Date:

Monday, September 17, 2012

  Actual Average Record
Temperature  
Mean Temperature 52 °F 60 °F  
Max Temperature 64 °F 73 °F 96 °F (1955)
Min Temperature 40 °F 48 °F 35 °F (1980)
Degree Days  
Heating Degree Days 13 6  
Month to date heating degree days 29 64  
Since 1 July heating degree days 60 96  
Cooling Degree Days 0 1  
Month to date cooling degree days 50 37  
Year to date cooling degree days 886 577  
Growing Degree Days 4 (Base 50)    
Moisture  
Dew Point 42 °F    
Average Humidity 64    
Maximum Humidity 93    
Minimum Humidity 34    
Precipitation  
Precipitation 0.06 in 0.13 in 2.16 in (1968)
Month to date precipitation 0.21 1.81  
Sea Level Pressure  
Sea Level Pressure 30.00 in    
Wind  
Wind Speed 12 mph (NNW)    
Max Wind Speed 25 mph    
Max Gust Speed 31 mph    
Visibility 9 miles    
Events Rain    
T = Trace of Precipitation, MM = Missing Value Source: NWS Daily Summary

Daily Weather History Graph

Daily Weather History Graph

Search for Another Location

Airport or City:

Trip Planner

Search our weather history database for the weather conditions in past years. The results will help you decide how hot, cold, wet, or windy it might be!

Date:

Astronomy

Sep. 17, 2012 Rise Set
Actual Time 7:01 AM CDT 7:24 PM CDT
Civil Twilight 6:32 AM CDT 7:53 PM CDT
Nautical Twilight 5:58 AM CDT 8:26 PM CDT
Astronomical Twilight 5:24 AM CDT 9:01 PM CDT
Moon 8:56 AM CDT (9/17) 8:01 PM CDT (9/17)
Length of Visible Light 13h 20m
Length of Day
12h 23m
Waxing Crescent, 3% of the Moon is Illuminated
Sep 17
Waxing Crescent
Sep 22
First Quarter
Sep 29
Full
Oct 8
Last Quarter
Oct 15
New

Hourly Weather History & Observations

Time (CDT) Temp. Windchill Dew Point Humidity Pressure Visibility Wind Dir Wind Speed Gust Speed Precip Events Conditions
12:52 AM 59.0 °F - 46.9 °F 64% 29.91 in 10.0 mi NNE 5.8 mph - N/A   Clear
1:52 AM 59.0 °F - 45.0 °F 60% 29.96 in 10.0 mi North 10.4 mph - N/A   Mostly Cloudy
2:52 AM 57.9 °F - 44.1 °F 60% 29.95 in 10.0 mi NNW 10.4 mph - N/A   Scattered Clouds
3:52 AM 57.0 °F - 43.0 °F 59% 29.95 in 10.0 mi North 12.7 mph 23.0 mph N/A   Scattered Clouds
4:52 AM 55.9 °F - 44.1 °F 64% 29.95 in 10.0 mi North 11.5 mph - N/A   Mostly Cloudy
5:52 AM 54.0 °F - 44.1 °F 69% 29.96 in 10.0 mi North 10.4 mph - N/A   Clear
6:36 AM 51.8 °F - 46.4 °F 82% 29.99 in 10.0 mi NNW 17.3 mph 24.2 mph N/A   Overcast
7:17 AM 50.0 °F - 44.6 °F 82% 30.01 in 10.0 mi North 16.1 mph 24.2 mph N/A   Overcast
7:38 AM 48.2 °F - 46.4 °F 93% 30.01 in 5.0 mi North 11.5 mph - 0.00 in Rain Rain
7:49 AM 48.2 °F - 46.4 °F 93% 30.01 in 2.0 mi North 10.4 mph 19.6 mph N/A Rain Heavy Rain
7:52 AM 48.9 °F - 46.9 °F 93% 30.02 in 2.0 mi North 11.5 mph - N/A Rain Heavy Rain
8:03 AM 48.2 °F - 46.4 °F 93% 30.02 in 5.0 mi NNW 11.5 mph - N/A Rain Rain
9:52 AM 48.9 °F - 46.9 °F 93% 30.03 in 6.0 mi North 10.4 mph - 0.06 in Rain Light Rain
10:52 AM 50.0 °F - 45.0 °F 83% 30.04 in 10.0 mi NNW 12.7 mph - 0.00 in   Mostly Cloudy
11:52 AM 53.1 °F - 42.1 °F 66% 30.04 in 10.0 mi NNW 15.0 mph - N/A   Clear
12:52 PM 59.0 °F - 37.9 °F 46% 30.02 in 10.0 mi North 18.4 mph - N/A   Clear
1:52 PM 62.1 °F - 39.0 °F 43% 30.02 in 10.0 mi North 13.8 mph 24.2 mph N/A   Clear
2:52 PM 63.0 °F - 37.0 °F 38% 30.00 in 10.0 mi North 16.1 mph 24.2 mph N/A   Clear
3:52 PM 64.0 °F - 37.0 °F 37% 29.99 in 10.0 mi North 18.4 mph 24.2 mph N/A   Scattered Clouds
4:52 PM 62.1 °F - 36.0 °F 38% 29.98 in 10.0 mi NNW 15.0 mph - N/A   Scattered Clouds
5:52 PM 62.1 °F - 33.1 °F 34% 29.99 in 10.0 mi NW 16.1 mph 23.0 mph N/A   Partly Cloudy
6:52 PM 55.0 °F - 41.0 °F 59% 30.01 in 10.0 mi North 16.1 mph 26.5 mph N/A   Overcast
7:52 PM 51.1 °F - 41.0 °F 68% 30.02 in 10.0 mi NNW 9.2 mph - N/A   Clear
8:52 PM 46.9 °F - 41.0 °F 80% 30.04 in 10.0 mi NW 10.4 mph - N/A   Clear
9:52 PM 45.0 °F 41.2 °F 39.9 °F 82% 30.05 in 10.0 mi NW 6.9 mph - N/A   Clear
11:52 PM 41.0 °F 36.4 °F 37.9 °F 89% 30.06 in 10.0 mi NW 6.9 mph - N/A   Clear